This is the latest recevied weather packets stored in our database for station/object XE2OR-10. If no packets are shown the sender has not sent any weather packets the latest 10 day(s).
| Time | Temp. | Humidity | Pressure | Rain* | Wind** | Luminosity | Snow |
|---|---|---|---|---|---|---|---|
| 1777751633 | 23.33° C | 52% | 1025.6 hPa | 0 mm | - | 754 W/m² | - |
| 1777751329 | 23.89° C | 52% | 1025.8 hPa | 0 mm | - | 780 W/m² | - |
| 1777751032 | 23.33° C | 54% | 1025.6 hPa | 0 mm | - | 775 W/m² | - |
| 1777750729 | 23.33° C | 52% | 1025.7 hPa | 0 mm | - | 769 W/m² | - |
| 1777750429 | 23.33° C | 53% | 1025.9 hPa | 0 mm | - | 787 W/m² | - |
| 1777750129 | 23.33° C | 53% | 1025.9 hPa | 0 mm | - | 750 W/m² | - |
| 1777749832 | 22.78° C | 53% | 1025.8 hPa | 0 mm | - | 757 W/m² | - |
| 1777749529 | 22.78° C | 54% | 1026 hPa | 0 mm | - | 744 W/m² | - |
| 1777748929 | 22.22° C | 54% | 1026.5 hPa | 0 mm | - | 764 W/m² | - |
| 1777748629 | 21.67° C | 56% | 1026.1 hPa | 0 mm | - | 765 W/m² | - |
| 1777748329 | 22.22° C | 55% | 1026.4 hPa | 0 mm | - | 753 W/m² | - |
| 1777748032 | 22.22° C | 55% | 1026.2 hPa | 0 mm | - | 775 W/m² | - |
| 1777747729 | 22.22° C | 57% | 1026.2 hPa | 0 mm | - | 796 W/m² | - |
| 1777747432 | 22.22° C | 57% | 1026.2 hPa | 0 mm | - | 779 W/m² | - |
| 1777747129 | 21.67° C | 55% | 1026.2 hPa | 0 mm | - | 728 W/m² | - |
| 1777746829 | 22.22° C | 56% | 1026.3 hPa | 0 mm | - | 720 W/m² | - |
| 1777746529 | 22.22° C | 58% | 1026.3 hPa | 0 mm | - | 761 W/m² | - |
| 1777746232 | 21.67° C | 56% | 1026.3 hPa | 0 mm | - | 747 W/m² | - |
| 1777745929 | 21.67° C | 56% | 1026.5 hPa | 0 mm | - | 750 W/m² | - |
| 1777745632 | 22.22° C | 56% | 1026.9 hPa | 0 mm | - | 752 W/m² | - |
| 1777745329 | 21.11° C | 58% | 1026.8 hPa | 0 mm | - | 733 W/m² | - |
| 1777745029 | 21.67° C | 59% | 1026.9 hPa | 0 mm | - | 699 W/m² | - |
| 1777744728 | 21.67° C | 58% | 1027.1 hPa | 0 mm | - | 691 W/m² | - |
| 1777744433 | 21.67° C | 59% | 1026.8 hPa | 0 mm | - | 582 W/m² | - |
| 1777744129 | 21.11° C | 61% | 1027.2 hPa | 0 mm | - | 599 W/m² | - |
* Rain latest hour (hover to see other rain measurements)
** Current wind speed in m/s (hover to see current wind gust speed)